[[{"header":{"parameterUnit":"m.s-1","parameterCategory":1,"la1":30.2991,"la2":30.254,"lo1":-89.0895,"lo2":-89.0444,"dy":0.0017,"dx":0.0017,"nx":28,"ny":28,"refTime":"2023-03-27T15:00:00:Z","depth":0,"parameterNumber":2,"parameterNumberName":"U-component_of_WINDS"},"data":[0,0,0,0,0,0,0,0,0,0,0,0,0,0,0,0,0,0,0,0,0,0,0,0,0,0,0,0,0,0,0,0,0,0,0,0,0,0,0,0,0,0,0,0,0,0,0,0,0,0,0,0,0,0,0,0,0,0,0.2024,0.2024,0,0.2053,0.2054,0.2054,0.2058,0.2058,0.2058,0.2058,0.2088,0.2089,0.209,0,0,0,0,0,0,0,0,0,0,0,0,0,0.1971,0.1972,0.2024,0.2024,0.2025,0.2053,0.2054,0.2054,0.2059,0.2058,0.2058,0.2058,0.2087,0.2089,0.209,0,0,0,0,0,0,0,0,0,0,0,0,0,0.1997,0.1972,0.2024,0.203,0.2031,0.2053,0.2054,0.2054,0.2059,0.2058,0.2058,0.2057,0.2087,0.2089,0.209,0.2108,0,0,0.2095,0.2096,0,0,0,0,0,0,0,0,0.1995,0.1999,0.2029,0.203,0.2031,0.2052,0.2046,0.2072,0.2059,0.2048,0.2058,0.2057,0.2076,0.2079,0.2085,0.2109,0.2111,0.2095,0.2096,0.2097,0.2097,0,0,0,0,0,0,0,0.1993,0.1997,0.2036,0.2029,0.2031,0.2032,0.2035,0.2051,0.2064,0.2049,0.2049,0.2053,0.2077,0.2083,0.2086,0.2111,0.2095,0.2096,0.2097,0.2098,0.2151,0.2152,0,0,0,0,0,0,0.199,0.1996,0.2035,0.2036,0.2012,0.2033,0.2036,0.2045,0.2064,0.2066,0.2053,0.2053,0.2081,0.2084,0.2087,0.2109,0.2097,0.2098,0.2099,0.2151,0.2152,0.2152,0,0,0,0,0,0,0.1989,0.1994,0.2033,0.2016,0.2021,0.2034,0.2044,0.2046,0.2053,0.2067,0.2069,0.2058,0.2081,0.2085,0.2103,0.211,0.2099,0.21,0.215,0.2151,0.2152,0.2154,0,0,0,0,0,0,0.1988,0.1993,0.2,0.2016,0.2022,0.2049,0.2045,0.2047,0.2056,0.2056,0.2072,0.2074,0.2081,0.21,0.2104,0.2112,0.2102,0.215,0.2151,0.2152,0.2153,0.2154,0.2155,0,0,0,0,0,0.1986,0.1999,0.2001,0.2005,0.2031,0.2049,0.2053,0.206,0.2056,0.2064,0.2072,0.2074,0.2109,0.2102,0.2107,0.2115,0.2149,0.2151,0.2152,0.2152,0.2154,0.2155,0,0,0,0,0,0,0.1984,0.2002,0.2003,0.2022,0.2034,0.205,0.2059,0.2061,0.2074,0.2074,0.2082,0.2086,0.2103,0.2111,0.2103,0.2133,0.2129,0.2131,0.2128,0.2129,0.2131,0.2129,0.2103,0,0,0,0,0,0.1986,0.1999,0.2014,0.2029,0.2035,0.2046,0.2054,0.2059,0.2071,0.2076,0.2087,0.2099,0.2112,0.2121,0.2135,0.2154,0.2158,0.2162,0.2163,0.2164,0.2166,0.2177,0.2179,0.2156,0.2156,0.2156,0,0,0.1989,0.2001,0.2009,0.2029,0.2039,0.2053,0.205,0.2065,0.2075,0.2079,0.2096,0.2104,0.2118,0.2137,0.2146,0.2144,0.2173,0.2165,0.2166,0.2167,0.2178,0.218,0.2182,0.2156,0.2156,0.2156,0,0,0.2003,0.2013,0.2028,0.2037,0.2052,0.2059,0.2063,0.2078,0.2084,0.2102,0.2105,0.2117,0.214,0.215,0.2158,0.2176,0.2178,0.218,0.2187,0.2198,0.22,0.2201,0.2208,0.221,0.2182,0.2182,0.2182,0,0.2006,0.2027,0.2035,0.2049,0.2058,0.2062,0.2077,0.2086,0.2104,0.211,0.2108,0.2137,0.2147,0.2168,0.2173,0.2179,0.2183,0.2179,0.2199,0.22,0.2202,0.2209,0.2211,0.2182,0.2182,0.2182,0.2182,0,0.203,0.2044,0.2054,0.2072,0.2082,0.2096,0.2106,0.2115,0.2119,0.2126,0.2145,0.2156,0.2172,0.2178,0.2181,0.22,0.2198,0.2197,0.2193,0.2204,0.2211,0.2213,0.2183,0.2183,0.2182,0.2182,0,0,0.2044,0.2066,0.2069,0.2078,0.2094,0.2106,0.212,0.2136,0.2144,0.2156,0.2169,0.2188,0.2188,0.2197,0.2202,0.2211,0.2225,0.2209,0.2209,0.2212,0.2246,0.2247,0.225,0.2226,0.2226,0.2227,0.2245,0,0.206,0.2086,0.2094,0.2116,0.2129,0.2134,0.2146,0.2158,0.2165,0.2178,0.2185,0.22,0.2197,0.2203,0.2212,0.2221,0.2232,0.222,0.2238,0.2238,0.2235,0.2253,0.2254,0.227,0.2247,0.2248,0.2248,0,0.2082,0.2096,0.212,0.2135,0.2141,0.2152,0.2167,0.2179,0.2192,0.2197,0.2207,0.2211,0.2227,0.2221,0.2243,0.2234,0.2242,0.2247,0.2248,0.225,0.2244,0.2256,0.2276,0.2278,0.2252,0.2252,0.2251,0,0.209,0.2114,0.2132,0.2139,0.2157,0.2165,0.2173,0.2186,0.2195,0.2208,0.2214,0.2229,0.2237,0.2248,0.2256,0.2251,0.2276,0.2271,0.2281,0.2281,0.2286,0.2286,0.2308,0.229,0.229,0.229,0.229,0,0.2108,0.2123,0.2136,0.2146,0.2163,0.2171,0.2187,0.2195,0.2206,0.2219,0.2223,0.2234,0.2244,0.2256,0.2262,0.2279,0.2283,0.2287,0.2289,0.2287,0.2286,0.2292,0.2291,0.2291,0.2291,0.2291,0.2291,0,0.212,0.2129,0.2149,0.2164,0.2169,0.218,0.2194,0.2204,0.2212,0.2227,0.2231,0.2243,0.2258,0.2267,0.2286,0.229,0.2309,0.231,0.2304,0.2305,0.2314,0.2313,0.2341,0.2345,0.2325,0.2325,0.2325,0,0.2131,0.2142,0.2159,0.2168,0.2176,0.219,0.2199,0.2208,0.2217,0.2233,0.2242,0.2258,0.227,0.2294,0.2304,0.2319,0.232,0.2329,0.2323,0.2321,0.2321,0.232,0.2322,0.233,0.2331,0.2331,0.2331,0,0.2149,0.2153,0.2167,0.2182,0.2193,0.2206,0.2218,0.2225,0.2235,0.2246,0.2261,0.2271,0.2291,0.2306,0.2322,0.233,0.2332,0.2333,0.2336,0.2334,0.2331,0.2333,0.2308,0.2332,0.2332,0.2332,0.2332,0.2332,0.2161,0.2171,0.2185,0.22,0.221,0.2222,0.2233,0.2242,0.2255,0.2272,0.2276,0.2292,0.2305,0.2326,0.2335,0.2348,0.2346,0.235,0.2352,0.2353,0.2353,0.2329,0.2351,0.235,0.235,0.235,0.235,0,0.2179,0.2189,0.2202,0.222,0.2232,0.2233,0.2247,0.2256,0.2271,0.2283,0.2296,0.2314,0.2329,0.234,0.2356,0.2364,0.2365,0.2367,0.2367,0.2369,0.2353,0.2349,0.2366,0.2366,0.2366,0.2366,0.2366,0.2366,0.219,0.2208,0.2214,0.2237,0.2246,0.2263,0.2271,0.2281,0.2291,0.2311,0.2324,0.2331,0.2343,0.2359,0.2373,0.2376,0.2381,0.2383,0.2386,0.2372,0.237,0.2368,0.2365,0.2384,0.2384,0.2401,0.2401,0.2401]},{"header":{"parameterUnit":"m.s-1","parameterCategory":1,"la1":30.2991,"la2":30.254,"lo1":-89.0895,"lo2":-89.0444,"dy":0.0017,"dx":0.0017,"nx":28,"ny":28,"refTime":"2023-03-27T15:00:00:Z","depth":0,"parameterNumber":3,"parameterNumberName":"V-component_of_WINDS"},"data":[0,0,0,0,0,0,0,0,0,0,0,0,0,0,0,0,0,0,0,0,0,0,0,0,0,0,0,0,0,0,0,0,0,0,0,0,0,0,0,0,0,0,0,0,0,0,0,0,0,0,0,0,0,0,0,0,0,0,4.4175,4.4177,0,4.4299,4.43,4.4302,4.4308,4.4306,4.4305,4.4304,4.4428,4.4432,4.4437,0,0,0,0,0,0,0,0,0,0,0,0,0,4.3941,4.3946,4.4175,4.4177,4.4178,4.4299,4.4301,4.4302,4.4308,4.4306,4.4305,4.4303,4.4426,4.4432,4.4437,0,0,0,0,0,0,0,0,0,0,0,0,0,4.4052,4.3947,4.4175,4.4196,4.4199,4.4299,4.4301,4.4303,4.4309,4.4306,4.4304,4.4302,4.4424,4.4431,4.4438,4.4524,0,0,4.4459,4.4462,0,0,0,0,0,0,0,0,4.4045,4.406,4.4191,4.4195,4.4198,4.4286,4.4264,4.4377,4.4309,4.4267,4.4304,4.4301,4.4382,4.4392,4.442,4.453,4.4535,4.446,4.4464,4.4467,4.4469,0,0,0,0,0,0,0,4.4038,4.4055,4.4224,4.4193,4.4198,4.4198,4.4211,4.4285,4.4335,4.427,4.4271,4.4286,4.4384,4.4414,4.4423,4.4537,4.446,4.4466,4.447,4.4473,4.4724,4.4726,0,0,0,0,0,0,4.4026,4.4049,4.422,4.4228,4.4115,4.4204,4.4219,4.426,4.4334,4.4344,4.4288,4.4286,4.4403,4.4415,4.4428,4.4534,4.4467,4.4474,4.4478,4.4721,4.4724,4.4727,0,0,0,0,0,0,4.4021,4.4042,4.4215,4.4139,4.4161,4.4211,4.4256,4.4264,4.4294,4.4347,4.4356,4.4309,4.4402,4.4418,4.45,4.4538,4.4477,4.4483,4.4718,4.4722,4.4726,4.4747,0,0,0,0,0,0,4.4015,4.404,4.4074,4.4139,4.4165,4.4287,4.4259,4.4267,4.4306,4.4305,4.437,4.4379,4.4401,4.449,4.4507,4.4547,4.4489,4.4715,4.472,4.4724,4.4743,4.4751,4.4758,0,0,0,0,0,4.4006,4.4075,4.4076,4.4096,4.4209,4.4289,4.4304,4.4329,4.4309,4.4343,4.4377,4.4377,4.4531,4.4498,4.4518,4.456,4.4713,4.4719,4.4724,4.474,4.475,4.4758,0,0,0,0,0,0,4.4012,4.4084,4.4086,4.4177,4.4227,4.429,4.4334,4.4338,4.4394,4.4391,4.4419,4.4433,4.4515,4.4546,4.4508,4.4647,4.462,4.4629,4.4625,4.4635,4.4642,4.4633,4.4494,0,0,0,0,0,4.4024,4.4084,4.4143,4.4218,4.4243,4.4284,4.432,4.4335,4.4388,4.4409,4.4449,4.4499,4.4559,4.4598,4.4656,4.4747,4.4761,4.4785,4.4793,4.4798,4.4807,4.4857,4.4869,4.4745,4.4745,4.4745,0,0,4.4049,4.4096,4.4132,4.422,4.4261,4.4322,4.4302,4.4368,4.4413,4.4418,4.45,4.4531,4.4588,4.4676,4.4716,4.4703,4.4844,4.4805,4.481,4.4815,4.4864,4.4876,4.4886,4.4749,4.4748,4.4748,0,0,4.4127,4.4168,4.4235,4.4276,4.4338,4.4365,4.4381,4.4443,4.4464,4.4546,4.4551,4.4605,4.4707,4.4749,4.4783,4.4875,4.4876,4.4893,4.4931,4.498,4.499,4.4999,4.5032,4.5044,4.4901,4.4901,4.4901,0,4.415,4.4244,4.4269,4.4335,4.4374,4.4382,4.445,4.4488,4.4565,4.4591,4.4576,4.4705,4.4744,4.4841,4.4863,4.489,4.4909,4.4886,4.4986,4.4996,4.5004,4.5037,4.5049,4.4902,4.4902,4.4902,4.4902,0,4.427,4.4335,4.4381,4.4457,4.45,4.4567,4.4601,4.4642,4.4653,4.4681,4.4763,4.481,4.4878,4.4902,4.4913,4.5001,4.4991,4.4981,4.4954,4.5017,4.5048,4.5061,4.4905,4.4904,4.4904,4.4903,0,0,4.4357,4.4444,4.4461,4.4496,4.4564,4.4614,4.468,4.4747,4.4782,4.4834,4.489,4.4976,4.4967,4.5006,4.5021,4.5063,4.5134,4.5048,4.505,4.5063,4.5234,4.5243,4.5257,4.5134,4.5137,4.5139,4.523,0,4.4443,4.4563,4.4587,4.469,4.475,4.4757,4.4815,4.4862,4.489,4.4944,4.4973,4.5034,4.5017,4.5041,4.5083,4.5117,4.5169,4.511,4.5187,4.519,4.5175,4.5273,4.5282,4.5366,4.5242,4.5244,4.5245,0,4.456,4.4616,4.4726,4.4786,4.4812,4.4864,4.4927,4.4978,4.5031,4.5048,4.5091,4.5102,4.517,4.5138,4.5232,4.5192,4.5224,4.5245,4.5249,4.5259,4.5223,4.5286,4.5393,4.5406,4.5265,4.5263,4.5262,0,4.4614,4.4716,4.4795,4.4824,4.4896,4.4932,4.4963,4.5014,4.5053,4.5108,4.5133,4.5194,4.5228,4.5275,4.5301,4.5275,4.5393,4.5364,4.541,4.5409,4.5436,4.5434,4.5551,4.5454,4.5454,4.5453,4.5453,0,4.4709,4.4776,4.4821,4.487,4.4944,4.497,4.5044,4.5074,4.5119,4.5174,4.5183,4.5233,4.5264,4.5318,4.5339,4.5414,4.5429,4.5444,4.5449,4.5445,4.5443,4.5468,4.5463,4.5457,4.5456,4.5455,4.5455,0,4.4782,4.4815,4.4902,4.4962,4.4979,4.5032,4.5083,4.513,4.5157,4.5225,4.5242,4.5284,4.5349,4.5379,4.5459,4.5472,4.5559,4.5559,4.5541,4.5543,4.5588,4.5584,4.5726,4.5746,4.5634,4.5635,4.5636,0,4.4842,4.4894,4.496,4.4997,4.503,4.5089,4.5129,4.5156,4.5196,4.5261,4.53,4.5365,4.5419,4.5521,4.5558,4.5619,4.5622,4.5667,4.5631,4.5625,4.5624,4.5622,4.5627,4.5675,4.5676,4.5677,4.5677,0,4.4944,4.4957,4.5015,4.5078,4.5125,4.5176,4.5225,4.5255,4.5289,4.5334,4.5401,4.5443,4.5524,4.5589,4.5652,4.5683,4.5686,4.5688,4.5702,4.5699,4.5687,4.5696,4.5561,4.5685,4.5684,4.5684,4.5683,4.5683,4.5014,4.506,4.5114,4.5177,4.5217,4.5263,4.5311,4.5344,4.54,4.5469,4.5481,4.5552,4.5603,4.5688,4.5721,4.5776,4.5766,4.5786,4.5791,4.5796,4.5799,4.5677,4.5788,4.5787,4.5787,4.5787,4.5787,0,4.5118,4.5152,4.521,4.528,4.5329,4.5328,4.5382,4.5424,4.5487,4.5534,4.5587,4.5663,4.5725,4.5767,4.583,4.5866,4.5869,4.5882,4.588,4.5887,4.5805,4.5787,4.5878,4.5878,4.5878,4.5878,4.5878,4.5878,4.5178,4.5257,4.5276,4.5375,4.5409,4.5479,4.5511,4.5553,4.5591,4.5676,4.5728,4.5755,4.58,4.5866,4.5923,4.5933,4.5957,4.597,4.598,4.5903,4.5893,4.5884,4.5868,4.5975,4.5975,4.6059,4.606,4.606]}]]